Nadi, Fiji

9:26 AM +12 on June 27, 2017 (GMT +1200)
Nadi International

Weather History for NFFN - January, 2013

Change the Weather History Date:

Sunday, January 27, 2013

  Actual Average Record
Temperature  
Mean Temperature 80 °F -  
Max Temperature 86 °F 86 °F 91 °F (2002)
Min Temperature 73 °F 73 °F 70 °F (2017)
Cooling Degree Days 14    
Growing Degree Days 30 (Base 50)    
Moisture  
Dew Point 74 °F    
Average Humidity 80    
Maximum Humidity 94    
Minimum Humidity 60    
Precipitation  
Precipitation 0.16 in 0.40 in - ()
Sea Level Pressure  
Sea Level Pressure 29.67 in    
Wind  
Wind Speed 4 mph ()    
Max Wind Speed 12 mph    
Max Gust Speed -    
Visibility 12.0 miles    
Events Rain    
Averages and records for this station are not official NWS values.
T = Trace of Precipitation, MM = Missing Value Source: Averaged Metar Reports

Daily Weather History Graph

Daily Weather History Graph

Search for Another Location

Airport or City:

Trip Planner

Search our weather history database for the weather conditions in past years. The results will help you decide how hot, cold, wet, or windy it might be!

Date:

Astronomy

Jan. 27, 2013 Rise Set
Actual Time 5:54 AM +12 6:51 PM +12
Civil Twilight 5:31 AM +12 7:14 PM +12
Nautical Twilight 5:03 AM +12 7:41 PM +12
Astronomical Twilight 4:35 AM +12 8:09 PM +12
Moon 6:39 PM +12 (1/27) 5:36 AM +12 (1/27)
Length of Visible Light 13h 42m
Length of Day
12h 56m
Full, 100% of the Moon is Illuminated
Jan 27
Full
Jan 27
Full
Feb 4
Last Quarter
Feb 10
New
Feb 18
First Quarter

Hourly Weather History & Observations

Time (+12) Temp. Heat Index Dew Point Humidity Pressure Visibility Wind Dir Wind Speed Gust Speed Precip Events Conditions
12:00 AM 79 °F - 74 °F 79% 29.73 in 12 mi Calm Calm - -   Partly Cloudy
12:00 AM 78.8 °F - 73.4 °F 83% 29.71 in 24.9 mi Calm Calm - N/A   Mostly Cloudy
1:00 AM 78.8 °F - 73.4 °F 83% 29.71 in 24.9 mi Calm Calm - N/A   Mostly Cloudy
2:00 AM 77.0 °F - 73.4 °F 89% 29.68 in 24.9 mi East 3.5 mph - N/A   Mostly Cloudy
3:00 AM 76 °F - 74 °F 91% 29.65 in 12 mi SSE 3.5 mph - - Rain Light Rain Showers
3:00 AM 75.2 °F - 73.4 °F 94% 29.68 in 24.9 mi SSE 3.5 mph - N/A   Mostly Cloudy
4:00 AM 75.2 °F - 73.4 °F 94% 29.65 in 24.9 mi Calm Calm - N/A   Mostly Cloudy
5:00 AM 77.0 °F - 73.4 °F 89% 29.65 in 24.9 mi Calm Calm - N/A   Mostly Cloudy
6:00 AM 75 °F - 74 °F 94% 29.69 in 31 mi East 3.5 mph - -   Partly Cloudy
6:00 AM 75.2 °F - 73.4 °F 94% 29.68 in 31.1 mi East 3.5 mph - N/A   Mostly Cloudy
7:00 AM 75.2 °F - 73.4 °F 94% 29.68 in 31.1 mi East 5.8 mph - N/A   Mostly Cloudy
8:00 AM 78.8 °F - 73.4 °F 83% 29.71 in 28.0 mi East 4.6 mph - N/A   Mostly Cloudy
9:00 AM 80 °F - 74 °F 76% 29.71 in 12 mi East 4.6 mph - - Rain Light Rain
9:00 AM 78.8 °F - 73.4 °F 83% 29.68 in 28.0 mi East 4.6 mph - N/A Rain Light Rain
10:00 AM 78.8 °F - 73.4 °F 83% 29.68 in 28.0 mi NE 11.5 mph - N/A   Mostly Cloudy
11:00 AM 86.0 °F 93.4 °F 73.4 °F 66% 29.68 in 28.0 mi West 5.8 mph - N/A   Mostly Cloudy
12:00 PM 86 °F - 74 °F 60% 29.69 in 31 mi West 9.2 mph - -   Partly Cloudy
12:00 PM 86.0 °F 93.4 °F 73.4 °F 66% 29.68 in 31.1 mi West 9.2 mph - N/A   Mostly Cloudy
1:00 PM 86.0 °F 93.4 °F 73.4 °F 66% 29.65 in 31.1 mi West 11.5 mph - N/A   Mostly Cloudy
2:00 PM 86.0 °F 95.1 °F 75.2 °F 70% 29.65 in 31.1 mi West 11.5 mph - N/A   Mostly Cloudy
3:00 PM 86 °F - 75 °F 62% 29.64 in 31 mi West 8.1 mph - -   Partly Cloudy
3:00 PM 86.0 °F 95.1 °F 75.2 °F 70% 29.62 in 31.1 mi West 8.1 mph - N/A   Scattered Clouds
4:00 PM 84.2 °F 92.3 °F 75.2 °F 74% 29.62 in 31.1 mi West 8.1 mph - N/A   Scattered Clouds
5:00 PM 84.2 °F 92.3 °F 75.2 °F 74% 29.62 in 24.9 mi SW 5.8 mph - N/A Rain Light Rain
6:00 PM 82 °F - 74 °F 72% 29.62 in 31 mi SSW 8.1 mph - - Rain Light Rain
6:00 PM 82.4 °F 89.5 °F 75.2 °F 79% 29.62 in 31.1 mi SSW 8.1 mph - N/A   Mostly Cloudy
7:00 PM 82.4 °F 88.2 °F 73.4 °F 74% 29.62 in 28.0 mi South 8.1 mph - N/A   Scattered Clouds
8:00 PM 80.6 °F 85.4 °F 73.4 °F 79% 29.65 in 24.9 mi South 6.9 mph - N/A   Scattered Clouds
9:00 PM 79 °F - 73 °F 77% 29.67 in 12 mi Calm Calm - -   Partly Cloudy
9:00 PM 78.8 °F - 73.4 °F 83% 29.65 in 24.9 mi Calm Calm - N/A   Scattered Clouds
10:00 PM 78.8 °F - 73.4 °F 83% 29.65 in 24.9 mi Calm Calm - N/A   Partly Cloudy
11:00 PM 77.0 °F - 73.4 °F 89% 29.68 in 24.9 mi South 5.8 mph - N/A   Partly Cloudy